Weather History for Knoxville, TN

Change the Weather History Date:

Saturday, August 16, 2014

  Actual Average Record
Temperature  
Mean Temperature 72 °F 78 °F  
Max Temperature 83 °F 88 °F 101 °F (2007)
Min Temperature 61 °F 68 °F 57 °F (1992)
Degree Days  
Heating Degree Days 0 0  
Month to date heating degree days 0 0  
Since 1 June heating degree days 0 4  
Since 1 July heating degree days 0 0  
Cooling Degree Days 7 13  
Month to date cooling degree days 157 208  
Year to date cooling degree days 1009 1092  
Since 1 June cooling degree days 804 930  
Growing Degree Days 22 (Base 50)    
Moisture  
Dew Point 63 °F    
Average Humidity 76    
Maximum Humidity 100    
Minimum Humidity 51    
Precipitation  
Precipitation 0.00 in 0.10 in 2.90 in (1964)
Month to date precipitation 1.92 1.86  
Year to date precipitation 27.17 32.19  
Snow  
Snow 0.00 in 0.00 in - ()
Month to date snowfall 0.0 0.0  
Since 1 June snowfall 0.0 0.0  
Since 1 July snowfall 0.0 0.0  
Snow Depth 0.00 in    
Sea Level Pressure  
Sea Level Pressure 30.01 in    
Wind  
Wind Speed 2 mph (NNW)    
Max Wind Speed 9 mph    
Max Gust Speed 11 mph    
Visibility 9 miles    
Events      
T = Trace of Precipitation, MM = Missing Value Source: NWS Daily Summary

Daily Weather History Graph

Daily Weather History Graph

Search for Another Location

Airport:

Trip Planner

Search our weather history database for the weather conditions in past years. The results will help you decide how hot, cold, wet, or windy it might be!

Date:

Astronomy

Aug. 16, 2014 Rise Set
Actual Time 6:55 AM EDT 8:24 PM EDT
Civil Twilight 6:28 AM EDT 8:51 PM EDT
Nautical Twilight 5:55 AM EDT 9:23 PM EDT
Astronomical Twilight 5:21 AM EDT 9:57 PM EDT
Moon No Moon Rise 1:26 PM EDT (8/16)
Length of Visible Light 14h 22m
Length of Day
13h 28m
Waning Gibbous, 59% of the Moon is Illuminated
Aug 16
Waning Gibbous
Aug 17
Last Quarter
Aug 25
New
Sep 2
First Quarter
Sep 8
Full

Hourly Weather History & Observations

Time (EDT) Temp. Heat Index Dew Point Humidity Pressure Visibility Wind Dir Wind Speed Gust Speed Precip Events Conditions
1:53 AM 66.0 °F - 64.0 °F 93% 29.99 in 8.0 mi Calm Calm - N/A   Scattered Clouds
2:53 AM 66.9 °F - 63.0 °F 87% 29.99 in 9.0 mi North 3.5 mph - N/A   Scattered Clouds
3:53 AM 63.0 °F - 62.1 °F 97% 29.98 in 5.0 mi East 4.6 mph - N/A   Partly Cloudy
4:53 AM 64.0 °F - 62.1 °F 93% 29.99 in 9.0 mi Calm Calm - N/A   Scattered Clouds
5:53 AM 62.1 °F - 61.0 °F 96% 30.00 in 4.0 mi NE 3.5 mph - N/A   Scattered Clouds
6:11 AM 62.1 °F - 61.0 °F 96% 30.02 in 6.0 mi Calm Calm - N/A   Scattered Clouds
6:53 AM 64.0 °F - 62.1 °F 93% 30.01 in 6.0 mi North 3.5 mph - N/A   Scattered Clouds
7:53 AM 64.0 °F - 62.1 °F 93% 30.03 in 7.0 mi Calm Calm - N/A   Mostly Cloudy
8:53 AM 66.9 °F - 63.0 °F 87% 30.05 in 7.0 mi Calm Calm - N/A   Mostly Cloudy
9:53 AM 71.1 °F - 64.0 °F 78% 30.04 in 10.0 mi Calm Calm - N/A   Mostly Cloudy
10:53 AM 73.9 °F - 64.0 °F 71% 30.04 in 10.0 mi Calm Calm - N/A   Mostly Cloudy
11:53 AM 77.0 °F - 63.0 °F 62% 30.05 in 10.0 mi West 3.5 mph - N/A   Mostly Cloudy
12:53 PM 80.1 °F 81.5 °F 63.0 °F 56% 30.05 in 10.0 mi SW 3.5 mph - N/A   Overcast
1:53 PM 79.0 °F - 64.0 °F 60% 30.05 in 10.0 mi West 4.6 mph - N/A   Overcast
2:53 PM 81.0 °F 82.7 °F 64.9 °F 58% 30.04 in 10.0 mi WNW 5.8 mph - N/A   Overcast
3:53 PM 82.0 °F 83.4 °F 64.0 °F 54% 30.02 in 10.0 mi WSW 5.8 mph - N/A   Overcast
4:53 PM 82.0 °F 83.1 °F 63.0 °F 52% 30.01 in 10.0 mi Calm Calm - N/A   Mostly Cloudy
5:53 PM 82.0 °F 83.0 °F 62.1 °F 51% 30.00 in 10.0 mi NW 4.6 mph - N/A   Mostly Cloudy
6:53 PM 82.0 °F 83.1 °F 63.0 °F 52% 29.99 in 10.0 mi WNW 3.5 mph - N/A   Mostly Cloudy
7:53 PM 80.1 °F 81.2 °F 62.1 °F 54% 29.99 in 10.0 mi Calm Calm - N/A   Mostly Cloudy
8:53 PM 77.0 °F - 66.0 °F 69% 30.00 in 10.0 mi Calm Calm - N/A   Overcast
9:53 PM 75.0 °F - 66.0 °F 73% 30.01 in 10.0 mi NNE 3.5 mph - N/A   Mostly Cloudy
10:53 PM 72.0 °F - 66.9 °F 84% 30.00 in 10.0 mi ENE 4.6 mph - N/A   Mostly Cloudy
11:53 PM 73.0 °F - 66.0 °F 79% 30.00 in 10.0 mi ENE 3.5 mph - N/A   Overcast